Location: ShareBrained
(45.5589°N, 122.6491°W)
Time: 08:06:09
(UTC-08:00)

NOAA 19 - Pass Details

Date: 21 January 2020
Orbit: 840 x 861 km, 99.2° (Epoch: 25 February)

Event Time Altitude Azimuth Distance (km) Brightness Sun altitude
Rises 07:02:39 0° 7° (N) 3,410 8.2 -7.3°
Reaches altitude 10° 07:05:10 10° 359° (N) 2,470 7.4 -6.9°
Maximum altitude 07:10:06 36° 295° (WNW) 1,316 5.7 -6.1°
Drops below altitude 10° 07:15:00 10° 231° (SW) 2,455 7.4 -5.3°
Sets 07:17:31 0° 223° (SW) 3,386 8.1 -4.9°
